contact:dominique.lefevre@mio.osupytheas.fr, maurice.libes@osupytheas.fr, didier.mallarino@osupytheas.fr
Project:EMSO http://www.emso-fr.org/EMSO-France
Depth: 2436.0 m
Title:EMSO Ligure Ouest : Data MII capteur AQUADOPP
Date,Latitude,Longitude,X_East,Y_North,Z_Up,Amplitude_X,Amplitude_Y,Amplitude_Z,Batterie,SoundSpeed,Heading,Pitch,Roll,Pressure,TIS,Speed,Direction
, degrees North, degrees East, m.s-1, m.s-1,m.s-1, 1, 1, 1, Volt, m.s-1, degree, degree, degree, dbar, degree_C, m.s-1, degree
2021-12-25T00:04:03,42.805,6.029,-0.015,-0.004,-0.016,99.0,101.0,100.0,13.3,1505.2,330.4,-0.8,1.8,2470.66,13.29,0.015,255.1
2021-12-25T00:07:03,42.805,6.029,-0.006,-0.006,-0.018,103.0,99.0,100.0,13.4,1505.2,325.8,-0.7,1.8,2470.654,13.29,0.008,225.0
2021-12-25T00:10:03,42.805,6.029,-0.006,0.025,0.019,100.0,102.0,99.0,13.4,1505.2,329.1,-0.7,1.8,2470.662,13.29,0.025,346.5
2021-12-25T00:13:03,42.805,6.029,-0.027,-0.001,-0.03,100.0,100.0,100.0,13.4,1505.2,328.7,-0.8,1.8,2470.657,13.29,0.027,267.9
2021-12-25T00:16:03,42.805,6.029,-0.03,0.012,-0.016,102.0,100.0,99.0,13.4,1505.2,328.3,-0.8,1.9,2470.603,13.29,0.032,291.8
2021-12-25T00:19:03,42.805,6.029,0.003,-0.015,-0.023,101.0,100.0,101.0,13.4,1505.2,330.7,-0.7,1.8,2470.616,13.29,0.015,168.7
2021-12-25T00:22:03,42.805,6.029,0.0,-0.005,-0.02,101.0,99.0,101.0,13.4,1505.2,324.8,-0.8,1.9,2470.611,13.29,0.005,180.0
2021-12-25T00:25:03,42.805,6.029,-0.01,0.004,-0.015,101.0,101.0,101.0,13.4,1505.2,328.6,-0.8,1.8,2470.652,13.29,0.01,291.8
2021-12-25T00:28:03,42.805,6.029,-0.013,0.01,-0.001,100.0,100.0,100.0,13.4,1505.2,330.4,-0.7,1.8,2470.654,13.29,0.016,307.6
2021-12-25T00:31:03,42.805,6.029,-0.01,0.0,-0.042,103.0,100.0,100.0,13.4,1505.2,328.0,-0.8,1.8,2470.63,13.29,0.01,270.0
2021-12-25T00:34:03,42.805,6.029,0.0,-0.008,-0.044,103.0,99.0,100.0,13.4,1505.2,324.6,-0.7,1.8,2470.612,13.29,0.008,180.0
2021-12-25T00:37:03,42.805,6.029,-0.017,0.0,-0.026,101.0,100.0,100.0,13.3,1505.2,329.6,-0.8,1.8,2470.583,13.29,0.017,270.0
2021-12-25T00:40:03,42.805,6.029,-0.019,0.007,-0.001,100.0,101.0,101.0,13.4,1505.2,329.3,-0.8,1.8,2470.603,13.29,0.02,290.2
2021-12-25T00:43:03,42.805,6.029,-0.004,0.015,0.021,101.0,101.0,100.0,13.4,1505.2,325.3,-0.8,1.8,2470.6,13.29,0.015,345.1
2021-12-25T00:46:03,42.805,6.029,-0.025,0.003,-0.014,101.0,101.0,99.0,13.4,1505.2,325.4,-0.8,1.8,2470.603,13.29,0.025,276.8
2021-12-25T00:49:03,42.805,6.029,-0.007,-0.007,-0.024,101.0,100.0,100.0,13.4,1505.2,327.0,-0.8,1.8,2470.545,13.29,0.009,225.0
2021-12-25T00:52:03,42.805,6.029,-0.018,0.007,-0.018,100.0,101.0,100.0,13.4,1505.2,328.6,-0.8,1.8,2470.555,13.29,0.019,291.2
2021-12-25T00:55:03,42.805,6.029,-0.026,0.013,-0.001,102.0,100.0,100.0,13.4,1505.2,324.8,-0.8,1.8,2470.601,13.29,0.029,296.6
2021-12-25T00:58:03,42.805,6.029,-0.028,0.014,0.001,101.0,101.0,100.0,13.4,1505.2,326.4,-0.7,1.8,2470.581,13.29,0.031,296.6
2021-12-25T01:04:03,42.805,6.029,-0.023,0.023,-0.02,101.0,103.0,101.0,13.4,1505.2,323.9,-0.8,1.8,2470.649,13.29,0.032,315.0
2021-12-25T01:07:03,42.805,6.029,-0.05,0.042,0.005,100.0,102.0,100.0,13.4,1505.2,328.1,-0.7,1.8,2470.638,13.29,0.065,310.0
2021-12-25T01:10:03,42.805,6.029,-0.021,-0.002,-0.029,99.0,103.0,99.0,13.4,1505.2,328.6,-0.8,1.8,2470.646,13.29,0.021,264.6
2021-12-25T01:13:03,42.805,6.029,-0.018,0.002,-0.044,100.0,100.0,99.0,13.4,1505.2,326.5,-0.8,1.8,2470.584,13.29,0.018,276.3
2021-12-25T01:16:03,42.805,6.029,-0.008,0.004,0.017,99.0,99.0,101.0,13.4,1505.2,328.2,-0.8,1.8,2470.61,13.29,0.008,296.6
2021-12-25T01:19:03,42.805,6.029,-0.031,0.006,-0.037,100.0,100.0,100.0,13.4,1505.2,326.5,-0.8,1.8,2470.565,13.29,0.031,281.0
2021-12-25T01:22:03,42.805,6.029,-0.023,0.038,0.01,101.0,99.0,100.0,13.3,1505.2,331.1,-0.8,1.8,2470.592,13.29,0.044,328.8
2021-12-25T01:25:03,42.805,6.029,-0.023,0.0,-0.006,99.0,101.0,100.0,13.4,1505.2,328.9,-0.8,1.8,2470.573,13.29,0.023,270.0
2021-12-25T01:28:03,42.805,6.029,0.0,-0.002,-0.013,100.0,101.0,100.0,13.4,1505.2,329.8,-0.7,1.8,2470.593,13.29,0.002,180.0
2021-12-25T01:31:03,42.805,6.029,0.002,0.015,-0.013,101.0,101.0,100.0,13.4,1505.2,328.3,-0.7,1.8,2470.59,13.29,0.015,7.6
2021-12-25T01:34:03,42.805,6.029,-0.009,0.009,-0.022,100.0,102.0,100.0,13.3,1505.2,331.2,-0.8,1.8,2470.604,13.29,0.012,315.0
2021-12-25T01:37:03,42.805,6.029,-0.016,0.006,-0.01,101.0,101.0,100.0,13.4,1505.2,326.7,-0.7,1.8,2470.541,13.29,0.017,290.6
2021-12-25T01:40:03,42.805,6.029,-0.002,0.017,0.0,100.0,100.0,100.0,13.3,1505.2,325.0,-0.7,1.8,2470.606,13.29,0.017,353.3
2021-12-25T01:43:03,42.805,6.029,-0.04,0.005,-0.05,99.0,101.0,100.0,13.3,1505.2,326.9,-0.8,1.8,2470.579,13.29,0.04,277.1
2021-12-25T01:46:03,42.805,6.029,-0.018,-0.012,-0.025,102.0,102.0,100.0,13.4,1505.2,324.1,-0.8,1.8,2470.569,13.29,0.021,236.3
2021-12-25T01:49:03,42.805,6.029,-0.011,0.015,-0.006,103.0,100.0,100.0,13.3,1505.2,327.0,-0.7,1.8,2470.589,13.29,0.018,323.7
2021-12-25T01:52:03,42.805,6.029,-0.047,0.008,-0.049,100.0,101.0,99.0,13.4,1505.2,330.8,-0.8,1.8,2470.613,13.29,0.047,279.7
2021-12-25T01:55:03,42.805,6.029,-0.041,0.026,-0.031,100.0,100.0,100.0,13.4,1505.2,328.8,-0.7,1.8,2470.584,13.29,0.048,302.4
2021-12-25T01:58:03,42.805,6.029,0.008,0.013,0.013,101.0,101.0,100.0,13.3,1505.2,331.6,-0.8,1.8,2470.578,13.29,0.015,31.6
2021-12-25T02:04:03,42.805,6.029,-0.043,0.018,0.002,100.0,101.0,100.0,13.3,1505.2,325.9,-0.8,1.8,2470.606,13.29,0.046,292.7
2021-12-25T02:07:03,42.805,6.029,-0.015,0.023,-0.021,100.0,101.0,100.0,13.4,1505.2,329.2,-0.7,1.8,2470.582,13.29,0.027,326.9
2021-12-25T02:10:03,42.805,6.029,-0.035,0.018,-0.015,100.0,100.0,100.0,13.4,1505.2,329.8,-0.7,1.9,2470.561,13.29,0.039,297.2
2021-12-25T02:13:03,42.805,6.029,-0.044,0.007,0.005,101.0,100.0,100.0,13.4,1505.2,326.0,-0.8,1.8,2470.594,13.29,0.044,279.0
2021-12-25T02:16:03,42.805,6.029,-0.033,-0.005,-0.045,100.0,100.0,100.0,13.4,1505.2,326.4,-0.8,1.8,2470.588,13.29,0.033,261.4
2021-12-25T02:19:03,42.805,6.029,-0.011,0.019,0.001,101.0,100.0,100.0,13.3,1505.2,327.9,-0.8,1.8,2470.601,13.29,0.021,329.9
2021-12-25T02:22:03,42.805,6.029,-0.016,0.004,-0.028,100.0,101.0,101.0,13.4,1505.2,329.4,-0.7,1.9,2470.604,13.29,0.016,284.0
2021-12-25T02:25:03,42.805,6.029,-0.022,0.016,0.019,101.0,101.0,100.0,13.4,1505.2,327.9,-0.8,1.8,2470.591,13.29,0.027,306.0
2021-12-25T02:28:03,42.805,6.029,-0.009,0.008,-0.034,100.0,101.0,100.0,13.4,1505.2,325.1,-0.8,1.8,2470.584,13.29,0.012,311.6
2021-12-25T02:31:03,42.805,6.029,-0.035,0.02,-0.013,100.0,101.0,100.0,13.4,1505.2,331.0,-0.8,1.8,2470.644,13.29,0.04,299.7
2021-12-25T02:34:03,42.805,6.029,-0.021,0.007,0.005,100.0,101.0,100.0,13.4,1505.2,328.4,-0.8,1.8,2470.616,13.29,0.022,288.4
2021-12-25T02:37:03,42.805,6.029,-0.02,-0.011,-0.044,101.0,101.0,100.0,13.4,1505.2,324.8,-0.8,1.8,2470.584,13.29,0.022,241.2
2021-12-25T02:40:03,42.805,6.029,-0.021,0.004,-0.029,102.0,100.0,100.0,13.4,1505.2,331.8,-0.7,1.8,2470.559,13.29,0.021,280.8
2021-12-25T02:43:03,42.805,6.029,-0.017,0.008,-0.007,101.0,101.0,100.0,13.3,1505.2,327.4,-0.8,1.8,2470.588,13.29,0.018,295.2
2021-12-25T02:46:03,42.805,6.029,-0.009,0.004,-0.009,102.0,101.0,100.0,13.4,1505.2,329.8,-0.7,1.8,2470.572,13.29,0.009,294.0
2021-12-25T02:49:03,42.805,6.029,-0.018,0.015,0.006,101.0,101.0,100.0,13.4,1505.2,324.9,-0.8,1.8,2470.575,13.29,0.023,309.8
2021-12-25T02:52:03,42.805,6.029,0.026,-0.02,-0.028,100.0,100.0,100.0,13.3,1505.2,327.3,-0.8,1.8,2470.577,13.29,0.032,127.6
2021-12-25T02:55:03,42.805,6.029,-0.032,0.008,-0.052,102.0,100.0,100.0,13.3,1505.2,329.6,-0.7,1.9,2470.58,13.29,0.032,284.0
2021-12-25T02:58:03,42.805,6.029,-0.015,-0.01,-0.042,101.0,101.0,100.0,13.4,1505.2,328.9,-0.8,1.8,2470.553,13.29,0.018,236.3
2021-12-25T03:04:03,42.805,6.029,-0.041,0.012,-0.025,100.0,101.0,101.0,13.3,1505.2,324.8,-0.8,1.8,2470.601,13.29,0.042,286.3
2021-12-25T03:07:03,42.805,6.029,-0.038,0.008,-0.03,100.0,100.0,100.0,13.4,1505.2,324.8,-0.8,1.8,2470.589,13.29,0.038,281.9
2021-12-25T03:10:03,42.805,6.029,-0.042,0.017,-0.046,103.0,100.0,100.0,13.3,1505.2,329.0,-0.8,1.8,2470.592,13.29,0.045,292.0
2021-12-25T03:13:03,42.805,6.029,-0.025,0.02,-0.011,101.0,102.0,100.0,13.3,1505.2,325.5,-0.8,1.8,2470.577,13.29,0.032,308.7
2021-12-25T03:16:03,42.805,6.029,-0.029,-0.003,-0.013,101.0,101.0,100.0,13.3,1505.2,326.2,-0.8,1.8,2470.602,13.29,0.029,264.1
2021-12-25T03:19:03,42.805,6.029,-0.008,0.011,0.009,101.0,102.0,100.0,13.4,1505.2,327.5,-0.8,1.8,2470.589,13.29,0.013,324.0
2021-12-25T03:22:03,42.805,6.029,-0.014,0.018,0.001,101.0,102.0,99.0,13.4,1505.2,329.5,-0.8,1.8,2470.573,13.29,0.022,322.1
2021-12-25T03:25:03,42.805,6.029,-0.012,0.008,-0.016,101.0,101.0,100.0,13.4,1505.2,327.7,-0.8,1.8,2470.602,13.29,0.014,303.7
2021-12-25T03:28:03,42.805,6.029,-0.044,-0.009,-0.046,100.0,101.0,100.0,13.4,1505.2,326.0,-0.8,1.8,2470.593,13.29,0.044,258.4
2021-12-25T03:31:03,42.805,6.029,-0.017,-0.004,-0.05,100.0,101.0,100.0,13.4,1505.2,328.2,-0.8,1.9,2470.582,13.29,0.017,256.8
2021-12-25T03:34:03,42.805,6.029,-0.029,0.014,0.017,102.0,102.0,100.0,13.3,1505.2,329.1,-0.8,1.8,2470.579,13.29,0.032,295.8
2021-12-25T03:37:03,42.805,6.029,-0.029,0.027,-0.003,101.0,101.0,100.0,13.3,1505.2,330.4,-0.7,1.8,2470.578,13.29,0.039,313.0
2021-12-25T03:40:03,42.805,6.029,0.011,0.006,-0.015,102.0,101.0,100.0,13.4,1505.2,326.0,-0.7,1.8,2470.579,13.29,0.012,61.4
2021-12-25T03:43:03,42.805,6.029,-0.028,-0.004,-0.002,101.0,101.0,100.0,13.4,1505.2,327.7,-0.7,1.8,2470.604,13.29,0.028,261.9
2021-12-25T03:46:03,42.805,6.029,-0.013,-0.007,-0.007,101.0,102.0,99.0,13.4,1505.2,329.2,-0.8,1.8,2470.572,13.29,0.014,241.7
2021-12-25T03:49:03,42.805,6.029,-0.026,0.01,-0.004,100.0,102.0,100.0,13.3,1505.2,326.7,-0.7,1.8,2470.592,13.29,0.027,291.0
2021-12-25T03:52:03,42.805,6.029,-0.025,0.011,-0.029,101.0,101.0,100.0,13.3,1505.2,326.2,-0.7,1.8,2470.531,13.29,0.027,293.7
2021-12-25T03:55:03,42.805,6.029,-0.041,0.014,-0.013,101.0,101.0,100.0,13.4,1505.2,324.9,-0.7,1.8,2470.557,13.29,0.043,288.9
2021-12-25T03:58:03,42.805,6.029,-0.018,0.03,0.01,101.0,101.0,101.0,13.3,1505.2,329.2,-0.8,1.8,2470.552,13.29,0.034,329.0
2021-12-25T04:04:03,42.805,6.029,-0.033,0.03,-0.023,100.0,102.0,100.0,13.3,1505.2,326.3,-0.8,1.8,2470.598,13.28,0.044,312.3
2021-12-25T04:07:03,42.805,6.029,-0.012,-0.024,-0.036,102.0,99.0,101.0,13.4,1505.2,325.0,-0.8,1.8,2470.551,13.28,0.026,206.6
2021-12-25T04:10:03,42.805,6.029,-0.014,0.0,-0.005,99.0,102.0,100.0,13.4,1505.2,328.9,-0.8,1.8,2470.567,13.29,0.014,270.0
2021-12-25T04:13:03,42.805,6.029,-0.02,0.017,-0.029,101.0,101.0,100.0,13.3,1505.2,328.9,-0.7,1.8,2470.576,13.29,0.026,310.4
2021-12-25T04:16:03,42.805,6.029,-0.027,0.01,-0.02,100.0,102.0,100.0,13.3,1505.2,331.6,-0.8,1.8,2470.557,13.29,0.028,290.3
2021-12-25T04:19:03,42.805,6.029,-0.027,0.016,-0.013,102.0,101.0,100.0,13.4,1505.2,327.4,-0.8,1.8,2470.523,13.29,0.031,300.7
2021-12-25T04:22:03,42.805,6.029,-0.05,0.022,0.005,100.0,101.0,100.0,13.4,1505.2,324.4,-0.8,1.8,2470.564,13.29,0.054,293.7
2021-12-25T04:25:03,42.805,6.029,-0.016,-0.004,-0.024,101.0,101.0,100.0,13.4,1505.2,327.2,-0.7,1.8,2470.569,13.29,0.016,256.0
2021-12-25T04:28:03,42.805,6.029,-0.031,0.02,0.001,101.0,101.0,99.0,13.4,1505.2,330.8,-0.8,1.9,2470.551,13.29,0.036,302.8
2021-12-25T04:31:03,42.805,6.029,-0.026,0.008,-0.012,102.0,101.0,99.0,13.3,1505.2,325.8,-0.7,1.8,2470.57,13.29,0.027,287.1
2021-12-25T04:34:03,42.805,6.029,-0.012,0.001,-0.038,101.0,101.0,100.0,13.4,1505.2,327.2,-0.8,1.8,2470.557,13.29,0.012,274.8
2021-12-25T04:37:03,42.805,6.029,-0.019,-0.004,-0.016,102.0,101.0,101.0,13.4,1505.2,327.3,-0.7,1.8,2470.559,13.29,0.019,258.1
2021-12-25T04:40:03,42.805,6.029,-0.042,-0.009,-0.029,101.0,101.0,100.0,13.3,1505.2,329.0,-0.7,1.8,2470.567,13.29,0.042,257.9
2021-12-25T04:43:03,42.805,6.029,-0.016,-0.004,-0.022,101.0,101.0,100.0,13.4,1505.2,327.4,-0.8,1.8,2470.542,13.29,0.016,256.0
2021-12-25T04:46:03,42.805,6.029,-0.021,0.005,-0.025,101.0,101.0,100.0,13.4,1505.2,324.5,-0.8,1.8,2470.601,13.29,0.021,283.4
2021-12-25T04:49:03,42.805,6.029,-0.017,0.009,-0.012,102.0,102.0,100.0,13.3,1505.2,329.8,-0.7,1.8,2470.59,13.29,0.019,297.9
2021-12-25T04:52:03,42.805,6.029,-0.023,-0.007,-0.015,101.0,102.0,100.0,13.4,1505.2,327.3,-0.8,1.8,2470.561,13.29,0.024,253.1
2021-12-25T04:55:03,42.805,6.029,-0.04,0.003,-0.036,102.0,102.0,100.0,13.4,1505.2,325.0,-0.8,1.8,2470.531,13.29,0.04,274.3
2021-12-25T04:58:03,42.805,6.029,-0.021,0.022,-0.001,101.0,101.0,100.0,13.4,1505.2,324.7,-0.7,1.8,2470.603,13.29,0.03,316.3
2021-12-25T05:04:03,42.805,6.029,-0.031,0.018,-0.021,101.0,102.0,101.0,13.4,1505.2,329.1,-0.7,1.8,2470.596,13.29,0.035,300.1
2021-12-25T05:07:03,42.805,6.029,-0.03,0.005,0.001,101.0,102.0,101.0,13.3,1505.2,332.0,-0.8,1.8,2470.572,13.29,0.03,279.5
2021-12-25T05:10:03,42.805,6.029,-0.014,0.01,0.002,101.0,101.0,100.0,13.4,1505.2,324.4,-0.8,1.9,2470.594,13.29,0.017,305.5
2021-12-25T05:13:03,42.805,6.029,-0.021,-0.003,-0.008,100.0,102.0,100.0,13.3,1505.2,326.8,-0.7,1.8,2470.592,13.29,0.021,261.9
2021-12-25T05:16:03,42.805,6.029,-0.028,-0.011,-0.032,102.0,102.0,100.0,13.3,1505.2,325.2,-0.7,1.8,2470.606,13.29,0.03,248.6
2021-12-25T05:19:03,42.805,6.029,-0.035,-0.007,-0.023,101.0,100.0,100.0,13.4,1505.2,328.6,-0.7,1.8,2470.616,13.29,0.035,258.7
2021-12-25T05:22:03,42.805,6.029,-0.02,0.009,-0.011,101.0,101.0,100.0,13.4,1505.2,326.7,-0.7,1.9,2470.592,13.29,0.021,294.2
2021-12-25T05:25:03,42.805,6.029,-0.052,0.026,0.005,101.0,101.0,100.0,13.4,1505.2,324.6,-0.8,1.8,2470.55,13.29,0.058,296.6
2021-12-25T05:28:03,42.805,6.029,-0.039,0.02,-0.021,100.0,101.0,99.0,13.4,1505.2,326.6,-0.8,1.8,2470.608,13.29,0.043,297.1
2021-12-25T05:31:03,42.805,6.029,-0.06,0.016,0.006,101.0,101.0,101.0,13.3,1505.2,324.8,-0.7,1.8,2470.586,13.29,0.062,284.9
2021-12-25T05:34:03,42.805,6.029,-0.031,0.015,-0.032,101.0,101.0,100.0,13.3,1505.2,328.2,-0.7,1.8,2470.571,13.29,0.034,295.8
2021-12-25T05:37:03,42.805,6.029,-0.035,0.009,-0.009,100.0,103.0,99.0,13.3,1505.2,328.2,-0.8,1.8,2470.596,13.29,0.036,284.4
2021-12-25T05:40:03,42.805,6.029,-0.022,0.001,-0.033,101.0,102.0,99.0,13.3,1505.2,323.8,-0.8,1.8,2470.575,13.29,0.022,272.6
2021-12-25T05:43:03,42.805,6.029,-0.021,-0.006,-0.072,101.0,101.0,100.0,13.4,1505.2,326.8,-0.7,1.8,2470.56,13.29,0.021,254.1
2021-12-25T05:46:03,42.805,6.029,-0.047,-0.002,-0.046,100.0,100.0,100.0,13.4,1505.2,324.9,-0.7,1.8,2470.567,13.29,0.047,267.6
2021-12-25T05:49:03,42.805,6.029,-0.03,0.001,0.001,101.0,102.0,101.0,13.4,1505.2,329.2,-0.8,1.8,2470.57,13.29,0.03,271.9
2021-12-25T05:52:03,42.805,6.029,-0.008,0.0,-0.036,101.0,101.0,100.0,13.4,1505.2,330.7,-0.7,1.8,2470.549,13.29,0.008,270.0
2021-12-25T05:55:03,42.805,6.029,-0.031,0.004,-0.023,101.0,102.0,100.0,13.4,1505.2,324.7,-0.7,1.8,2470.581,13.29,0.031,277.3
2021-12-25T05:58:03,42.805,6.029,-0.027,0.008,-0.008,101.0,101.0,100.0,13.4,1505.2,328.0,-0.7,1.8,2470.583,13.29,0.028,286.5
2021-12-25T06:04:03,42.805,6.029,-0.023,0.006,-0.023,101.0,103.0,101.0,13.4,1505.2,329.1,-0.8,1.9,2470.625,13.28,0.023,284.6
2021-12-25T06:07:03,42.805,6.029,-0.026,0.023,-0.019,101.0,101.0,100.0,13.4,1505.2,326.6,-0.8,1.8,2470.583,13.29,0.034,311.5
2021-12-25T06:10:03,42.805,6.029,-0.025,0.026,-0.007,101.0,101.0,100.0,13.4,1505.2,327.2,-0.8,1.8,2470.576,13.29,0.036,316.1
2021-12-25T06:13:03,42.805,6.029,-0.008,0.01,0.005,101.0,102.0,100.0,13.4,1505.2,327.4,-0.7,1.8,2470.589,13.29,0.012,321.3
2021-12-25T06:16:03,42.805,6.029,-0.038,0.006,0.006,101.0,101.0,101.0,13.4,1505.2,329.6,-0.8,1.8,2470.613,13.29,0.038,279.0
2021-12-25T06:19:03,42.805,6.029,-0.043,0.018,-0.014,101.0,101.0,100.0,13.4,1505.2,328.3,-0.8,1.9,2470.593,13.29,0.046,292.7
2021-12-25T06:22:03,42.805,6.029,-0.039,0.022,0.003,101.0,100.0,100.0,13.4,1505.2,328.2,-0.8,1.8,2470.561,13.29,0.044,299.4
2021-12-25T06:25:03,42.805,6.029,-0.023,-0.007,-0.035,102.0,101.0,100.0,13.4,1505.2,332.2,-0.8,1.9,2470.589,13.29,0.024,253.1
2021-12-25T06:28:03,42.805,6.029,-0.01,0.018,-0.008,101.0,100.0,102.0,13.4,1505.2,324.7,-0.8,1.8,2470.566,13.29,0.02,330.9
2021-12-25T06:31:03,42.805,6.029,-0.005,0.0,-0.011,101.0,101.0,100.0,13.4,1505.2,329.8,-0.8,1.8,2470.586,13.29,0.005,270.0
2021-12-25T06:34:03,42.805,6.029,-0.02,0.019,-0.014,100.0,101.0,100.0,13.4,1505.2,329.0,-0.8,1.8,2470.577,13.29,0.027,313.5
2021-12-25T06:37:03,42.805,6.029,-0.035,0.012,0.0,100.0,101.0,100.0,13.4,1505.2,326.7,-0.8,1.9,2470.605,13.29,0.037,288.9
2021-12-25T06:40:03,42.805,6.029,-0.029,0.016,-0.038,101.0,101.0,99.0,13.4,1505.2,326.6,-0.7,1.8,2470.602,13.29,0.033,298.9
2021-12-25T06:43:03,42.805,6.029,-0.019,0.028,0.001,101.0,100.0,100.0,13.4,1505.2,327.9,-0.7,1.8,2470.609,13.29,0.033,325.8
2021-12-25T06:46:03,42.805,6.029,-0.054,0.014,-0.038,102.0,101.0,100.0,13.3,1505.2,328.5,-0.7,1.8,2470.591,13.29,0.055,284.5
2021-12-25T06:49:03,42.805,6.029,-0.035,0.018,0.006,99.0,103.0,101.0,13.4,1505.2,325.5,-0.8,1.8,2470.632,13.29,0.039,297.2
2021-12-25T06:52:03,42.805,6.029,-0.042,0.004,0.01,101.0,99.0,100.0,13.3,1505.2,326.0,-0.8,1.8,2470.611,13.29,0.042,275.4
2021-12-25T06:55:03,42.805,6.029,-0.001,-0.002,-0.023,102.0,100.0,99.0,13.4,1505.2,331.2,-0.8,1.8,2470.606,13.29,0.002,206.6
2021-12-25T06:58:03,42.805,6.029,-0.039,-0.005,-0.023,100.0,102.0,101.0,13.4,1505.2,323.9,-0.7,1.9,2470.613,13.29,0.039,262.7
2021-12-25T07:04:03,42.805,6.029,-0.058,0.027,-0.015,101.0,101.0,100.0,13.3,1505.2,326.6,-0.7,1.8,2470.67,13.28,0.063,295.0
2021-12-25T07:07:03,42.805,6.029,-0.041,0.002,-0.041,100.0,101.0,100.0,13.4,1505.2,331.3,-0.7,1.9,2470.64,13.29,0.041,272.8
2021-12-25T07:10:03,42.805,6.029,-0.029,0.019,-0.01,99.0,103.0,101.0,13.3,1505.2,327.1,-0.7,1.8,2470.664,13.29,0.034,303.2
2021-12-25T07:13:03,42.805,6.029,-0.01,0.019,-0.012,103.0,100.0,99.0,13.3,1505.2,325.3,-0.8,1.8,2470.632,13.29,0.021,332.2
2021-12-25T07:16:03,42.805,6.029,-0.038,0.002,-0.019,100.0,102.0,101.0,13.4,1505.2,329.4,-0.7,1.9,2470.633,13.29,0.038,273.0
2021-12-25T07:19:03,42.805,6.029,-0.052,0.01,-0.068,101.0,100.0,100.0,13.4,1505.2,327.8,-0.8,1.8,2470.629,13.29,0.052,280.9
2021-12-25T07:22:03,42.805,6.029,-0.045,0.019,-0.031,101.0,101.0,100.0,13.4,1505.2,328.9,-0.8,1.8,2470.643,13.29,0.048,292.9
2021-12-25T07:25:03,42.805,6.029,-0.035,0.012,-0.027,101.0,101.0,100.0,13.4,1505.2,329.4,-0.8,1.8,2470.626,13.29,0.037,288.9
2021-12-25T07:28:03,42.805,6.029,-0.039,0.014,-0.007,100.0,101.0,101.0,13.3,1505.2,329.3,-0.8,1.8,2470.658,13.29,0.041,289.7
2021-12-25T07:31:03,42.805,6.029,-0.037,0.019,-0.025,102.0,100.0,101.0,13.3,1505.2,328.5,-0.8,1.8,2470.627,13.29,0.041,297.2
2021-12-25T07:34:03,42.805,6.029,-0.022,0.007,0.009,103.0,101.0,99.0,13.4,1505.2,331.6,-0.8,1.8,2470.68,13.29,0.023,287.6
2021-12-25T07:37:03,42.805,6.029,-0.021,0.027,-0.02,101.0,101.0,99.0,13.4,1505.2,327.8,-0.7,1.8,2470.654,13.29,0.034,322.1
2021-12-25T07:40:03,42.805,6.029,-0.018,-0.001,0.01,102.0,100.0,99.0,13.3,1505.2,325.3,-0.7,1.8,2470.667,13.29,0.018,266.8
2021-12-25T07:43:03,42.805,6.029,-0.014,0.016,-0.014,100.0,102.0,100.0,13.4,1505.2,328.8,-0.7,1.8,2470.673,13.29,0.021,318.8
2021-12-25T07:46:03,42.805,6.029,-0.025,0.017,-0.037,102.0,101.0,100.0,13.3,1505.2,329.5,-0.7,1.8,2470.708,13.29,0.03,304.2
2021-12-25T07:49:03,42.805,6.029,-0.054,0.012,-0.014,102.0,100.0,101.0,13.3,1505.2,330.4,-0.8,1.8,2470.67,13.29,0.055,282.5
2021-12-25T07:52:03,42.805,6.029,-0.012,0.01,-0.019,102.0,102.0,100.0,13.4,1505.2,326.6,-0.8,1.8,2470.691,13.29,0.015,309.8
2021-12-25T07:55:03,42.805,6.029,-0.03,0.001,0.011,101.0,100.0,100.0,13.4,1505.2,326.5,-0.7,1.8,2470.671,13.29,0.03,271.9
2021-12-25T07:58:03,42.805,6.029,-0.028,0.018,-0.038,101.0,101.0,100.0,13.4,1505.2,327.2,-0.8,1.8,2470.672,13.29,0.033,302.7
2021-12-25T08:04:03,42.805,6.029,-0.046,0.044,0.026,101.0,101.0,100.0,13.4,1505.2,331.6,-0.7,1.8,2470.725,13.28,0.063,313.7
2021-12-25T08:07:03,42.805,6.029,-0.024,0.018,-0.04,101.0,102.0,100.0,13.4,1505.2,325.1,-0.7,1.8,2470.718,13.29,0.03,306.9
2021-12-25T08:10:03,42.805,6.029,-0.011,0.016,-0.012,106.0,101.0,100.0,13.4,1505.2,330.6,-0.8,1.8,2470.705,13.29,0.019,325.5
2021-12-25T08:13:03,42.805,6.029,-0.021,0.011,-0.015,100.0,102.0,101.0,13.3,1505.2,326.4,-0.7,1.8,2470.722,13.29,0.023,297.6
2021-12-25T08:16:03,42.805,6.029,-0.036,0.022,0.023,101.0,102.0,102.0,13.3,1505.2,328.6,-0.8,1.8,2470.699,13.29,0.042,301.4
2021-12-25T08:19:03,42.805,6.029,-0.022,0.009,-0.01,100.0,102.0,101.0,13.3,1505.2,328.5,-0.7,1.8,2470.732,13.29,0.023,292.2
2021-12-25T08:22:03,42.805,6.029,-0.033,0.019,-0.011,103.0,101.0,100.0,13.3,1505.2,331.5,-0.7,1.8,2470.713,13.29,0.038,299.9
2021-12-25T08:25:03,42.805,6.029,-0.02,0.041,-0.011,104.0,99.0,100.0,13.4,1505.2,329.3,-0.8,1.8,2470.679,13.29,0.045,334.0
2021-12-25T08:28:03,42.805,6.029,-0.017,0.003,-0.004,101.0,102.0,100.0,13.4,1505.2,330.6,-0.8,1.8,2470.733,13.29,0.017,280.0
2021-12-25T08:31:03,42.805,6.029,-0.036,0.018,-0.039,100.0,101.0,101.0,13.3,1505.2,328.5,-0.7,1.8,2470.753,13.29,0.04,296.6
2021-12-25T08:34:03,42.805,6.029,-0.029,0.003,-0.022,102.0,102.0,100.0,13.3,1505.2,331.5,-0.8,1.8,2470.731,13.29,0.029,275.9
2021-12-25T08:37:03,42.805,6.029,-0.028,0.032,0.0,101.0,102.0,101.0,13.3,1505.2,325.3,-0.8,1.8,2470.692,13.29,0.042,318.8
2021-12-25T08:40:03,42.805,6.029,-0.023,0.01,-0.02,101.0,102.0,99.0,13.4,1505.2,327.5,-0.7,1.8,2470.754,13.29,0.025,293.5
2021-12-25T08:43:03,42.805,6.029,-0.031,0.026,-0.005,101.0,104.0,100.0,13.4,1505.2,331.3,-0.7,1.9,2470.746,13.29,0.04,310.0
2021-12-25T08:46:03,42.805,6.029,-0.027,0.031,0.01,102.0,100.0,100.0,13.4,1505.2,328.3,-0.7,1.8,2470.744,13.29,0.041,318.9
2021-12-25T08:49:03,42.805,6.029,-0.023,0.003,-0.007,101.0,101.0,101.0,13.4,1505.2,324.0,-0.7,1.8,2470.729,13.29,0.023,277.4
2021-12-25T08:52:03,42.805,6.029,-0.026,0.015,0.015,100.0,102.0,100.0,13.4,1505.2,326.5,-0.8,1.8,2470.753,13.29,0.03,300.0
2021-12-25T08:55:03,42.805,6.029,-0.011,0.019,0.002,101.0,102.0,100.0,13.4,1505.2,331.1,-0.8,1.8,2470.725,13.29,0.021,329.9
2021-12-25T08:58:03,42.805,6.029,-0.032,0.02,-0.041,100.0,103.0,100.0,13.4,1505.2,329.2,-0.8,1.8,2470.759,13.29,0.037,302.0
2021-12-25T09:04:03,42.805,6.029,-0.027,0.033,-0.012,103.0,102.0,100.0,13.4,1505.2,332.0,-0.7,1.8,2470.765,13.28,0.042,320.7
2021-12-25T09:07:03,42.805,6.029,-0.027,0.02,0.004,102.0,103.0,101.0,13.3,1505.2,324.8,-0.8,1.8,2470.81,13.28,0.033,306.5
2021-12-25T09:10:03,42.805,6.029,-0.04,0.019,-0.045,101.0,102.0,102.0,13.4,1505.2,325.7,-0.8,1.8,2470.766,13.29,0.044,295.4
2021-12-25T09:13:03,42.805,6.029,-0.031,0.005,-0.025,101.0,102.0,100.0,13.4,1505.2,325.6,-0.7,1.8,2470.755,13.29,0.031,279.2
2021-12-25T09:16:03,42.805,6.029,-0.027,0.039,-0.001,102.0,102.0,100.0,13.3,1505.2,329.7,-0.8,1.8,2470.753,13.29,0.047,325.3
2021-12-25T09:19:03,42.805,6.029,-0.03,0.02,-0.001,101.0,101.0,100.0,13.4,1505.2,326.9,-0.8,1.8,2470.793,13.29,0.036,303.7
2021-12-25T09:22:03,42.805,6.029,-0.036,0.008,-0.034,101.0,102.0,100.0,13.3,1505.2,325.9,-0.8,1.8,2470.761,13.29,0.036,282.5
2021-12-25T09:25:03,42.805,6.029,-0.026,-0.004,-0.039,101.0,102.0,101.0,13.4,1505.2,325.9,-0.8,1.8,2470.779,13.29,0.026,261.3
2021-12-25T09:28:03,42.805,6.029,-0.016,0.027,-0.029,102.0,101.0,100.0,13.4,1505.2,328.3,-0.7,1.8,2470.793,13.29,0.031,329.3
2021-12-25T09:31:03,42.805,6.029,-0.024,0.011,-0.044,101.0,103.0,100.0,13.3,1505.2,324.7,-0.8,1.8,2470.778,13.29,0.026,294.6
2021-12-25T09:34:03,42.805,6.029,-0.016,0.015,0.003,101.0,101.0,100.0,13.4,1505.2,330.2,-0.8,1.8,2470.75,13.29,0.021,313.1
2021-12-25T09:37:03,42.805,6.029,-0.03,-0.017,-0.016,101.0,101.0,100.0,13.4,1505.2,328.4,-0.7,1.8,2470.753,13.29,0.034,240.5
2021-12-25T09:40:03,42.805,6.029,-0.034,0.005,-0.017,102.0,101.0,101.0,13.3,1505.2,328.9,-0.8,1.8,2470.768,13.29,0.034,278.4
2021-12-25T09:43:03,42.805,6.029,-0.003,0.013,-0.029,101.0,102.0,100.0,13.4,1505.2,326.2,-0.7,1.8,2470.814,13.29,0.013,347.0
2021-12-25T09:46:03,42.805,6.029,-0.016,0.023,-0.022,100.0,103.0,100.0,13.4,1505.2,328.1,-0.7,1.8,2470.777,13.29,0.028,325.2
2021-12-25T09:49:03,42.805,6.029,-0.021,0.01,-0.022,99.0,102.0,101.0,13.3,1505.2,328.8,-0.7,1.8,2470.762,13.29,0.023,295.5
2021-12-25T09:52:03,42.805,6.029,-0.022,0.019,-0.014,102.0,102.0,100.0,13.4,1505.2,326.4,-0.8,1.8,2470.799,13.29,0.029,310.8
2021-12-25T09:55:03,42.805,6.029,-0.024,0.034,-0.024,101.0,102.0,100.0,13.4,1505.2,330.8,-0.8,1.8,2470.803,13.29,0.041,324.8